TimeEST,TemperatureF,Dew PointF,Humidity,Sea Level PressureIn,VisibilityMPH,Wind Direction,Wind SpeedMPH,Gust SpeedMPH,PrecipitationIn,Events,Conditions,WindDirDegrees,DateUTC
12:54 AM,12.0,5.0,73,30.24,9.0,West,6.9,-,0.00,Snow,Light Snow,260,2013-02-18 05:54:00
1:54 AM,12.0,5.0,73,30.25,9.0,West,6.9,-,0.00,Snow,Light Snow,260,2013-02-18 06:54:00
2:54 AM,10.9,5.0,77,30.26,9.0,West,9.2,-,0.00,Snow,Light Snow,260,2013-02-18 07:54:00
3:54 AM,10.9,5.0,77,30.27,9.0,WSW,5.8,-,0.00,,Scattered Clouds,250,2013-02-18 08:54:00
4:54 AM,12.0,5.0,73,30.29,10.0,SW,3.5,-,N/A,,Scattered Clouds,230,2013-02-18 09:54:00
5:54 AM,12.0,6.1,77,30.29,10.0,Calm,Calm,-,N/A,,Clear,0,2013-02-18 10:54:00
6:54 AM,10.0,5.0,80,30.30,10.0,South,5.8,-,N/A,,Partly Cloudy,180,2013-02-18 11:54:00
7:54 AM,12.0,6.1,77,30.29,10.0,SE,3.5,-,N/A,,Scattered Clouds,130,2013-02-18 12:54:00
8:54 AM,15.1,8.1,74,30.29,10.0,South,4.6,-,N/A,,Scattered Clouds,180,2013-02-18 13:54:00
9:54 AM,19.9,10.0,65,30.27,10.0,South,6.9,-,N/A,,Scattered Clouds,170,2013-02-18 14:54:00
10:54 AM,23.0,12.9,65,30.25,10.0,South,9.2,-,N/A,,Scattered Clouds,180,2013-02-18 15:54:00
11:54 AM,25.0,12.9,60,30.22,10.0,South,10.4,-,N/A,,Scattered Clouds,170,2013-02-18 16:54:00
12:54 PM,28.0,14.0,56,30.19,10.0,SSE,5.8,-,N/A,,Mostly Cloudy,160,2013-02-18 17:54:00
1:54 PM,28.9,10.0,45,30.14,10.0,Calm,Calm,-,N/A,,Mostly Cloudy,0,2013-02-18 18:54:00
2:54 PM,32.0,9.0,38,30.13,10.0,SSE,5.8,-,N/A,,Mostly Cloudy,160,2013-02-18 19:54:00
3:54 PM,33.1,12.0,42,30.09,10.0,East,6.9,-,N/A,,Mostly Cloudy,90,2013-02-18 20:54:00
4:54 PM,34.0,12.0,40,30.06,10.0,ESE,9.2,-,N/A,,Mostly Cloudy,110,2013-02-18 21:54:00
5:54 PM,33.1,14.0,46,30.04,10.0,ESE,6.9,-,N/A,,Mostly Cloudy,110,2013-02-18 22:54:00
6:54 PM,33.1,12.9,43,30.01,10.0,ESE,9.2,-,N/A,,Mostly Cloudy,120,2013-02-18 23:54:00
7:54 PM,34.0,14.0,44,29.98,10.0,SE,8.1,-,N/A,,Mostly Cloudy,140,2013-02-19 00:54:00
8:54 PM,34.0,15.1,46,29.94,10.0,SE,6.9,-,N/A,,Mostly Cloudy,130,2013-02-19 01:54:00
9:54 PM,34.0,16.0,48,29.92,10.0,SSE,9.2,-,N/A,,Scattered Clouds,150,2013-02-19 02:54:00
10:54 PM,36.0,18.0,48,29.89,10.0,SE,9.2,-,N/A,,Mostly Cloudy,140,2013-02-19 03:54:00
11:54 PM,36.0,19.9,52,29.87,10.0,SE,9.2,-,N/A,,Mostly Cloudy,140,2013-02-19 04:54:00